Location: B?sarip?du
(16.8993°N, 80.9213°E)
Time: 15:05:54
(UTC+00:00)

Daily predictions for brighter satellites

Satellite Brightness Start Highest point End
(mag) Time Altitude Azimuth Time Altitude Azimuth Time Altitude Azimuth
MOS 1 Rocket 4.1 13:29:23 10° NE 13:33:55 35° E 13:38:39 10° SSE
SL-14 R/B 4.1 13:31:54 10° SSE 13:35:17 30° E 13:38:43 10° NNE
Atlas Centaur 2 3.7 13:31:37 10° WNW 13:35:51 30° NNW 13:41:03 10° NE
Meteor 1-24 Rocket 4.1 13:31:09 10° SSE 13:36:31 46° E 13:42:04 10° NNE
SL-24 R/B 4.4 13:31:53 10° NNE 13:37:13 75° E 13:41:48 10° S
Myojo/LAPS 3.5 13:34:49 10° WNW 13:38:18 48° SSW 13:40:52 10° SE
Cosmos 2082 4.0 13:33:43 10° N 13:39:06 48° ENE 13:44:30 10° SE
Cosmos 2227 Rocket 2.4 13:36:19 10° NNW 13:41:57 76° WSW 13:47:34 10° S
Cosmos 2360 Rocket 3.4 13:37:58 10° SSE 13:41:58 20° ESE 13:45:59 10° NE
Delta 142 4.3 13:39:27 10° WNW 13:44:36 50° NNE 13:48:49 10° E
Cosmos 1553 Rocket 4.0 13:38:51 10° N 13:44:56 89° W 13:51:05 10° S
Cosmos 1437 3.7 13:45:46 10° SSW 13:48:40 48° W 13:51:34 10° N
DELTA 2 R/B (1) 3.5 13:44:49 10° SW 13:50:19 67° SE 13:55:51 10° ENE
Cosmos 1340 Rocket 4.3 13:47:38 10° NNW 13:51:19 38° W 13:54:59 10° SSW
SJ-11-01 4.5 13:47:33 10° SSE 13:52:04 52° ENE 13:56:35 10° N
S3M 4.0 13:45:58 10° N 13:52:21 73° E 13:58:41 10° S
HJ-1C 3.4 13:49:07 10° SSE 13:52:22 61° ENE 13:55:39 10° N
SL-16 R/B 2.3 13:54:30 10° SSW 14:00:09 84° WNW 14:05:50 10° NNE
CZ-2C R/B 3.3 13:55:30 10° SSE 14:01:15 65° ENE 14:06:52 10° N
Cosmos 1818 3.7 13:56:12 10° S 14:01:25 52° ESE 14:06:39 10° NE
ARGOS 3.7 13:56:53 10° SE 14:01:56 41° ENE 14:06:59 10° N
CZ-2C R/B 4.4 13:57:49 10° NE 14:02:08 34° E 14:06:23 10° SSE
Cosmos 1726 Rocket 4.3 13:58:27 10° NNE 14:02:31 35° E 14:05:53 14° SE
GPS 2-15 Rocket1 3.6 13:58:14 10° W 14:03:07 62° N 14:07:48 11° E
USA 215 3.3 14:03:13 10° NE 14:09:33 53° SE 14:15:51 10° SSW
Meteor 2-21 4.5 14:03:29 10° S 14:09:35 62° E 14:15:40 10° NNE
GPS 2-18 Rocket1 2.8 14:06:31 10° WSW 14:10:10 87° S 14:12:58 16° ENE
Cosmos 1626 2.7 14:08:32 10° SSW 14:12:10 59° W 14:15:48 10° N
SL-08 RB Rocket 4.4 14:10:06 18° SE 14:12:41 33° ENE 14:16:41 10° NNE
ATLAS 5 CENTAUR R/B 1.1 14:11:03 10° SSW 14:15:01 72° ESE 14:19:02 10° NNE
Cosmos 858 Rocket 4.5 14:11:05 10° N 14:16:18 65° ENE 14:20:25 16° SSE
CZ-2C R/B 2.5 14:12:17 10° NNE 14:17:34 70° ESE 14:22:44 10° S
Hubble Space Telescope 1.3 14:17:03 10° SW 14:20:54 38° SSE 14:22:19 28° ESE
Cosmos 1244 Rocket 4.4 14:17:42 10° S 14:23:47 69° E 14:29:52 10° N
Cosmos 1898 Rocket 3.9 14:22:14 10° NNW 14:27:20 60° WSW 14:32:24 10° S
GEOS 3 Rocket 3.6 14:24:17 10° NNE 14:29:39 75° ESE 14:34:56 10° SSW
Ariane Rocket 2.9 14:28:51 19° SSE 14:32:36 79° ENE 14:37:40 10° N
Cosmos 2058 Rocket 3.1 14:33:24 10° N 14:37:49 60° E 14:39:18 38° SSE
IRS-1A Rocket 4.1 14:34:05 19° SSE 14:38:07 83° ENE 14:43:37 10° N
DMSP B5D2-2 4.4 14:33:47 10° N 14:38:56 65° WNW 14:44:04 10° SSW
Cosmos 1626 Rocket 3.4 14:36:01 17° S 14:39:20 80° E 14:43:46 10° N
Meteor 1-21 Rocket 4.5 14:36:53 24° SSE 14:40:08 49° E 14:45:47 10° NNE
USA 186 2.5 14:41:37 30° SSW 14:42:57 52° W 14:46:14 10° NNW
H-2A R/B 3.1 14:40:21 10° S 14:45:29 46° W 14:50:41 10° NNW
NOSS 3-1 (C) 4.2 14:37:26 10° NNW 14:45:54 78° ENE 14:51:11 29° SSE
MOS 1 4.2 14:43:59 26° SSE 14:47:18 85° ENE 14:52:58 10° N
Cosmos 2322 Rocket 3.9 14:42:37 10° SW 14:47:37 34° WNW 14:52:37 10° N
Cosmos 2237 4.5 14:44:00 10° SSW 14:49:40 69° WNW 14:55:22 10° N
Resurs 1-3 4.2 14:50:56 39° ENE 14:50:56 39° ENE 14:54:47 10° N
Centaur Rocket 4.5 14:33:37 10° W 14:52:10 68° SSW 14:54:38 40° SE
SPOT 3 Rocket 3.8 14:52:29 44° E 14:53:09 47° ENE 14:58:07 10° N
IUS-17 SRM-1 4.0 14:40:19 10° WNW 14:53:09 48° SW 14:54:21 38° S
H-2A ROCKET BODY 4.0 14:51:02 10° NW 14:55:14 34° NNE 15:09:46 10° E
Timation 1 Rocket 4.2 14:49:30 10° NNW 14:55:28 89° WSW 14:57:52 38° SSE
Palapa B4 Rocket 4.0 14:49:50 10° WSW 14:58:19 59° SSE 14:59:37 48° ESE
Cosmos 2315 Rocket 4.5 14:53:01 10° NNW 14:59:14 61° W 15:04:32 15° S
SJ 16-02 4.2 14:57:51 10° WNW 14:59:35 12° W 15:01:20 10° WSW
USA 229 DEB 3.9 14:52:51 10° NNW 15:00:26 84° ENE 15:03:44 39° SSE
USA 229 3.9 14:52:56 10° NNW 15:00:32 83° ENE 15:03:48 39° SSE
NOSS 3-3 (A) 3.6 14:57:15 10° SSW 15:02:43 65° ESE 15:08:28 10° NNE
NOSS 3-3 (C) 3.6 15:00:01 29° S 15:02:50 64° ESE 15:08:35 10° NNE
Cosmos 2298 Rocket 4.0 15:01:16 10° N 15:06:32 64° ENE 15:06:47 63° E
COSMOS 2428 4.2 15:09:51 22° NE 15:09:51 22° NE 15:12:00 10° NE
OAO 3 Copernicus 4.5 15:04:50 10° WSW 15:09:52 69° NNW 15:11:45 38° NE
Cosmos 2322 3.5 15:08:39 38° S 15:10:56 82° ESE 15:16:39 10° NNE
NOSS 3-1 (A) 4.2 15:02:34 10° NNW 15:11:02 73° ENE 15:14:09 45° SE
SJ-6B 4.1 15:11:25 32° WSW 15:12:07 35° W 15:15:44 10° NNW
Cosmos 1300 3.9 15:12:23 10° NNW 15:15:55 37° W 15:16:03 37° W
EXPRESS MD2 4.4 15:12:15 10° NW 15:16:35 74° SW 15:17:58 56° SSE
Cosmos 2285 Rocket 4.2 15:12:20 10° NNW 15:18:31 65° WSW 15:20:37 42° SSW
Cosmos 2333 4.2 15:21:03 46° SSW 15:22:45 79° WNW 15:28:23 10° NNE
Cosmos 2219 Rocket 3.0 15:25:54 38° NE 15:25:54 38° NE 15:29:21 10° NNE
Cosmos 2360 Rocket 3.9 15:20:44 10° SW 15:25:37 31° WNW 15:30:33 10° N
Atlas Centaur 2 4.3 15:21:28 10° NW 15:26:09 24° N 15:31:06 12° NE
Nadezhda 1 Rocket 4.3 15:21:38 10° N 15:27:06 52° ENE 15:27:06 52° ENE
DELTA-4 R/B 3.9 15:28:07 10° WSW 15:32:22 63° SSE 15:52:05 10° E
Cosmos 2333 Rocket 2.4 15:33:48 60° NNE 15:33:48 60° NNE 15:38:24 10° NNE
Cosmos 2263 Rocket 2.4 15:29:40 10° NNW 15:35:08 62° WSW 15:35:08 62° WSW
Meteor 2-1 Rocket 4.4 15:34:05 10° N 15:39:25 74° NNW 15:39:25 74° NNW
Resurs 01 Rocket 3.5 15:52:59 29° NW 15:52:59 29° NW 15:55:20 10° NNW
Milstar 3 Cent rocket 4.0 15:59:16 10° W 16:01:44 25° WSW 16:01:44 25° WSW
Atlas Centaur 2 4.5 17:10:30 10° NW 17:13:39 25° NNW 17:13:39 25° NNW
CZ-4C R/B 4.2 20:07:55 10° N 20:15:16 38° ENE 20:15:19 38° ENE
ADEOS II 4.5 20:38:06 10° NNE 20:39:22 18° NNE 20:39:22 18° NNE
COSMOS 2406 4.5 21:11:38 36° NNE 21:11:38 36° NNE 21:14:57 10° NNE
Cosmos 2082 Rocket 3.3 21:26:00 38° E 21:26:00 38° E 21:30:57 10° NE
Meteor 1-11 Rocket 4.2 21:35:02 57° NNE 21:35:02 57° NNE 21:39:25 10° N
IDEFIX/ARIANE 42P 3.4 21:28:48 10° NNE 21:32:31 47° NNE 21:32:31 47° NNE
Cosmos 2233 Rocket 4.0 21:38:40 77° NE 21:38:40 77° NE 21:44:27 10° N
ARIANE 5 R/B 4.1 21:41:45 10° N 21:44:03 24° NNW 21:44:03 24° NNW
Cosmos 1833 Rocket 3.1 21:48:45 51° NNW 21:48:45 51° NNW 21:53:08 10° N
ATLAS 2A CENTAUR R/B 3.8 21:51:35 14° ENE 21:51:35 14° ENE 21:52:19 10° ENE
Cosmos 1900 4.4 22:01:02 73° ENE 22:01:02 73° ENE 22:05:35 10° NNE
CZ-4C R/B 4.2 21:56:26 10° NW 22:00:18 27° WNW 22:00:18 27° WNW
Tsikada Rocket 3.9 22:00:57 10° N 22:07:22 86° W 22:09:50 41° S
CZ-3A R/B 3.5 22:07:14 32° SSE 22:07:45 33° SE 22:17:18 10° ENE
Centaur AC-72 2.9 22:09:06 39° W 22:12:06 86° N 22:17:54 10° E
H-2A R/B 2.5 22:11:40 34° SE 22:13:28 62° ENE 22:17:52 10° N
COSMOS 2441 4.2 22:09:38 10° N 22:14:23 71° WNW 22:14:23 71° WNW
deb Chang Zheng 4 3.9 22:10:42 10° NNE 22:14:53 58° ESE 22:15:36 50° SE
ATLAS 2A CENTAUR R/B 3.2 22:23:33 28° WNW 22:25:41 38° NNW 22:28:33 10° NE
MSX 4.1 22:21:18 10° N 22:26:45 47° WNW 22:27:44 42° WSW
GPS 2-14 Rocket1 2.7 22:26:41 68° NW 22:27:00 73° N 22:31:10 10° ENE
Cosmos 1544 4.3 22:27:20 25° SE 22:28:53 38° E 22:32:13 10° NNE
Cosmos 1743 2.5 22:30:10 75° WNW 22:30:10 75° WNW 22:33:53 10° N
SWAS 4.3 22:31:55 56° SSW 22:32:48 90° WNW 22:37:05 10° NNE
Cosmos 1464 Rocket 4.0 22:28:52 19° S 22:33:40 85° E 22:40:03 10° N
Meteor 2-4 Rocket 4.5 22:30:16 10° NNW 22:35:28 33° W 22:35:31 33° W
Cosmos 2034 Rocket 4.4 22:32:55 10° S 22:38:59 62° E 22:45:02 10° NNE
Cosmos 1656 4.0 22:34:15 10° N 22:39:38 64° ENE 22:45:02 10° SSE
PSLV R/B 3.8 22:36:09 10° N 22:40:17 48° WNW 22:40:59 43° WSW
CENTAUR R/B 4.4 22:37:27 10° SSE 22:41:06 19° ESE 22:44:59 10° ENE
Meteor 1-23 Rocket 4.4 22:36:35 10° N 22:42:20 77° E 22:48:07 10° S
Landsat 5 3.4 22:42:17 33° SSW 22:43:55 59° WSW 22:47:55 10° NNW
GPS 2-12 Rocket1 3.1 22:41:48 29° WNW 22:44:01 71° N 22:48:27 10° E
Meteor 1-13 Rocket 4.5 22:38:45 10° NNW 22:44:10 46° W 22:46:59 26° SSW
Cosmos 1484 Rocket 4.4 22:41:15 10° NE 22:44:43 32° E 22:48:08 10° SSE
NATO 3D Rocket 4.3 22:40:36 17° WNW 22:45:48 55° N 22:50:56 10° ENE
PAYLOAD A 4.4 22:41:50 10° N 22:46:59 51° WNW 22:49:37 28° SW
Cosmos 1378 Rocket 3.8 22:43:47 10° N 22:48:09 69° E 22:52:32 10° S
Hubble Space Telescope 0.6 22:46:59 33° WNW 22:48:43 71° SSW 22:52:50 10° ESE
DELTA 2 R/B (1) 3.9 22:43:18 10° NW 22:48:52 67° NE 22:54:26 10° ESE
Cosmos 1782 Rocket 3.5 22:51:36 16° S 22:55:07 85° W 22:59:35 10° N
ERS-2 3.4 22:56:40 24° WNW 22:56:40 24° WNW 22:58:55 10° NW
CZ-4B R/B 4.5 22:53:20 10° NNE 22:57:25 57° E 23:01:17 10° S
NOSS 3-2 (C) 4.5 22:55:05 10° S 22:59:58 36° ESE 23:05:05 10° NE
SWIFT 3.0 22:58:06 16° WNW 23:01:15 51° N 23:05:24 10° ENE
SJ-6F 4.4 22:57:18 10° N 23:01:20 61° WNW 23:04:11 19° SSW
CZ-2C R/B 2.9 22:57:11 10° N 23:01:33 37° WNW 23:03:53 23° SW
Orbus 7S? 3.8 22:54:14 10° NW 23:01:52 81° WSW 23:05:18 10° SSE
CZ-3B R/B 2.7 22:58:02 16° W 23:04:06 51° NNW 23:07:13 10° NE
Cosmos 1674 Rocket 3.9 23:03:40 10° NNW 23:07:45 42° W 23:11:48 10° SSW
Cosmos 2082 Rocket 3.8 23:07:53 15° W 23:09:43 17° WNW 23:13:22 10° NNW
Cosmos 921 Rocket 3.3 23:06:53 10° N 23:11:14 71° ENE 23:15:29 10° SSE
NOSS 3-2 (A) 3.1 23:13:00 13° SSW 23:17:49 72° WNW 23:23:32 10° NNE
ADEOS 4.4 23:17:11 10° NNW 23:21:48 33° WNW 23:26:16 11° SW
Okean 2 3.8 23:19:00 10° N 23:23:02 66° E 23:27:04 10° SSE
H-2A R/B 3.6 23:20:45 10° NNE 23:24:51 45° E 23:28:47 10° S
SL-27 R/B 2.5 23:21:59 10° SSW 23:25:32 62° WNW 23:29:04 10° N
Cosmos 1975 3.9 23:23:28 13° SW 23:26:22 27° W 23:29:46 10° NNW
Okean 2 Rocket 3.2 23:23:06 10° S 23:27:30 80° E 23:31:53 10° N
Cosmos 1697 Rocket 2.6 23:22:58 10° NNW 23:28:35 83° WSW 23:34:10 10° SSE
Spot 2 4.4 23:24:11 10° NNE 23:29:03 88° WNW 23:34:07 10° SSW
Delta 198 3.4 23:24:28 10° WNW 23:29:07 82° NNE 23:33:06 10° ESE
Cosmos 1867 3.6 23:26:53 10° SSW 23:32:17 79° WNW 23:37:43 10° NNE
METEOR-M 4.1 23:28:34 10° N 23:33:53 74° WNW 23:39:11 10° SSW
H-2A R/B (2) 3.3 23:32:48 10° WNW 23:34:54 16° NNW 23:36:44 10° NNE
SJ-12 3.9 23:31:32 10° N 23:35:38 86° WNW 23:39:42 10° SSW
ALOS 2.5 23:33:30 10° N 23:38:01 51° WNW 23:42:31 10° SSW
ERBS 3.9 23:35:03 10° S 23:38:02 31° ESE 23:41:00 10° NE
Cosmos 1242 Rocket 2.9 23:35:35 10° NNW 23:38:48 38° W 23:42:02 10° SSW
ARIANE 44L R/B 3.9 23:40:56 10° S 23:41:35 11° SSE 23:42:20 10° SSE
